EHI
0 0 0 0 0 0 0 0 0 0 1 1 2 2 2 1 0 0 0 0 1 2 2 1 0 0 0 0 0 0 0 0 0 0 0 0 0 0 0 0 0 0 0
0 0 0 0 0 0 0 0 0 1 2 2 2 2 1 0 0 0 0 0 0 1 1 0 0 0 0 0 0 0 0 0 0 0 0 0 0 0 0 0 0 0 0
0 0 0 0 0 0 0 0 0 1 2 3 2 1 0 0 0 0 0 0 0 0 0 0 0 0 0 0 0 0 0 0 0 0 0 0 0 0 0 0 0 0 0
0 0 0 0 0 0 0 0 0 1 1 2 1 0 0 0 0 0 0 0 0 0 0 0 0 0 0 0 0 0 0 0 0 0 0 0 0 0 0 0 0 0 0
0 0 0 0 0 0 0 0 0 0 0 0 0 0 0 0 0 0 0 0 0 0 0 0 0 0 0 0 0 0 0 0 0 0 0 0 0 0 0 0 0 0 0
0 0 0 0 0 0 0 0 0 0 0 0 0 0 0 0 0 0 0 0 0 0 0 0 0 0 0 0 0 0 0 0 0 0 0 0 0 0 0 0 0 0 0
0 0 0 0 0 0 0 0 0 0 0 0 0 0 0 0 0 0 0 0 0 0 0 0 0 0 0 0 0 0 0 0 0 0 0 0 0 0 0 0 0 0 0
0 0 0 0 0 0 0 0 0 0 0 0 0 0 0 0 0 0 0 0 0 0 0 0 0 0 0 0 0 0 0 0 0 0 0 0 0 0 0 0 0 0 0
0 0 0 0 0 0 0 0 0 0 0 0 0 0 0 0 0 0 0 0 0 0 0 0 0 0 0 0 0 0 0 0 0 0 0 0 0 0 0 0 0 0 0
0 0 0 0 0 0 0 0 0 0 0 0 0 0 0 0 0 0 0 0 0 0 0 0 0 0 0 0 0 0 0 0 0 0 0 0 0 0 0 0 0 0 0
0 0 0 0 0 0 0 0 0 0 0 0 0 0 0 0 0 0 0 0 0 0 0 0 0 0 0 0 0 0 0 0 0 0 0 0 0 0 0 0 0 0 0
0 0 0 0 0 0 0 0 0 0 0 0 0 0 0 0 0 0 0 0 0 0 0 0 0 0 0 0 0 0 0 0 0 0 0 0 0 0 0 0 0 0 0
0 0 0 0 0 0 0 0 0 0 0 0 0 0 0 0 0 0 0 0 0 0 0 0 0 0 0 0 0 0 0 0 0 0 0 0 0 0 0 0 0 0 0
0 0 0 0 0 0 0 0 0 0 0 0 0 0 0 0 0 0 0 0 0 0 0 0 0 0 0 0 0 0 0 0 0 0 0 0 0 0 0 0 0 0 0
0 0 0 0 0 0 0 0 0 0 0 0 0 0 0 0 0 0 0 0 0 0 0 0 0 0 0 0 0 0 0 0 0 0 0 0 0 0 0 0 0 0 0
0 0 0 0 0 0 0 0 0 0 0 0 0 0 0 0 0 0 0 0 0 0 0 0 0 0 0 0 0 0 0 0 0 0 0 0 0 0 0 0 0 0 0
0 0 0 0 0 0 0 0 0 0 0 0 0 0 0 0 0 0 0 0 0 0 0 0 0 0 0 0 0 0 0 0 0 0 0 0 0 0 0 0 0 0 0
0 0 0 0 0 0 0 0 0 0 0 0 0 0 0 0 0 0 0 0 0 0 0 0 0 0 0 0 0 0 0 0 0 0 0 0 0 0 0 0 0 0 0
0 0 0 0 0 0 0 0 0 0 0 0 0 0 0 0 0 0 0 0 0 0 0 0 0 0 0 0 0 0 0 0 0 0 0 0 0 0 0 0 0 0 0
0 0 0 0 0 0 0 0 0 0 0 0 0 0 0 0 0 0 0 0 0 0 0 0 0 0 0 0 0 0 0 0 0 0 0 0 0 0 0 0 0 0 0
0 0 0 0 0 0 0 0 0 0 0 0 0 0 0 0 0 0 0 0 0 0 0 0 0 0 0 0 0 0 0 0 0 0 0 0 0 0 0 0 0 0 0
0 0 0 0 0 0 0 0 0 0 0 0 0 0 0 0 0 0 0 0 0 0 0 0 0 0 0 0 0 0 0 0 0 0 0 0 0 0 0 0 0 0 0
0 0 0 0 0 0 0 0 0 0 0 0 0 0 0 0 0 0 0 0 0 0 0 0 0 0 0 0 0 0 0 0 0 0 0 0 0 0 0 0 0 0 0
0 0 0 0 0 0 0 0 0 0 0 0 0 0 0 0 0 0 0 0 0 0 0 0 0 0 0 0 0 0 0 0 0 0 0 0 0 0 0 0 0 0 0
0 0 0 0 0 0 0 0 0 0 0 0 0 0 0 0 0 0 0 0 0 0 0 0 0 0 0 0 0 0 0 0 0 0 0 0 0 0 0 0 0 0 0
0 0 0 0 0 0 0 0 0 0 0 0 0 0 0 0 0 0 0 0 0 0 0 0 0 0 0 0 0 0 0 0 0 0 0 0 0 0 0 0 0 0 0
Wind_Speed
6 6 6 5 6 6 5 6 5 5 5 5 5 5 5 5 5 5 5 4 4 5 4 4 4 4 2 2 2 2 2 3 5 4 3 3 4 5 5 5 5 5 6
6 6 6 5 6 6 6 6 5 5 5 6 6 6 7 7 6 6 6 6 6 6 6 5 5 4 4 3 3 3 3 4 6 7 5 4 5 5 5 5 5 5 5
5 6 6 6 6 6 6 6 6 6 6 6 6 7 7 7 7 7 7 7 7 7 6 6 6 5 5 4 4 4 5 5 5 6 6 4 4 4 5 5 6 4 4
6 6 6 6 5 5 6 6 6 6 6 6 7 7 7 8 8 7 7 7 8 8 8 8 7 7 6 5 5 6 6 6 7 7 7 5 5 5 4 5 5 3 3
5 6 6 6 5 5 5 5 6 6 7 6 7 7 7 7 8 8 6 7 8 8 9 9 10 10 10 7 5 5 5 5 6 6 6 6 5 4 4 3 4 4 3
5 6 6 6 5 5 5 5 6 7 6 6 7 8 8 8 9 10 8 7 8 9 9 9 9 9 10 10 11 10 7 6 6 5 6 6 5 4 3 2 3 3 3
6 6 6 6 6 5 5 6 6 6 6 7 7 7 8 9 9 9 9 6 8 8 8 8 8 8 7 9 9 10 11 9 6 5 7 6 5 4 2 3 2 2 3
5 6 6 5 5 5 5 5 5 5 6 6 7 7 7 8 9 8 7 6 8 8 9 9 8 9 9 7 9 10 10 9 7 6 6 5 5 3 1 2 2 3 3
5 5 5 5 5 5 5 5 5 5 6 6 6 7 7 7 9 9 8 5 7 8 8 9 8 9 9 7 7 9 9 8 8 8 7 6 5 3 3 1 1 1 2
5 5 5 4 4 5 5 5 4 4 5 5 6 6 6 6 7 9 9 3 5 6 7 8 11 9 8 8 6 7 8 7 6 6 6 5 4 3 1 2 3 2 1
5 5 5 5 4 4 4 4 3 3 4 5 5 5 5 5 6 8 10 5 4 4 5 6 7 8 7 8 6 6 5 2 3 3 4 3 3 2 1 1 3 3 3
6 6 6 4 3 4 4 3 3 3 4 4 4 4 4 5 5 6 7 7 7 4 4 5 6 5 5 5 4 4 2 3 1 2 2 2 2 2 2 2 3 3 2
6 6 5 5 4 4 3 3 3 2 3 3 3 3 3 4 5 4 3 4 5 3 5 5 3 1 1 2 2 2 4 1 2 2 2 2 3 2 1 0 1 1 3
6 6 5 4 4 4 2 2 2 2 3 3 3 2 3 3 3 2 2 2 2 2 2 3 3 2 2 1 2 2 1 3 3 2 2 2 1 0 1 2 2 2 2
6 5 5 4 4 3 3 3 3 4 4 3 2 2 2 3 5 6 5 4 4 4 3 2 2 2 2 2 2 1 1 1 0 1 1 1 1 1 1 1 2 4 3
6 5 4 4 3 3 4 4 4 3 2 1 3 5 3 3 2 3 4 4 4 5 5 1 0 0 1 1 0 1 0 1 1 1 1 2 2 2 3 3 3 4 4
5 4 3 3 3 3 2 3 4 3 2 3 3 2 2 2 2 3 3 4 5 5 4 1 0 0 1 1 1 1 1 1 2 2 2 2 3 3 3 4 4 4 5
5 5 3 3 3 3 3 2 2 3 4 4 5 6 5 4 4 4 4 5 5 5 3 1 1 1 1 1 2 1 1 1 2 2 2 3 3 4 4 5 4 5 6
5 4 3 2 3 3 2 2 2 2 2 2 3 6 7 7 7 6 6 6 4 2 2 2 2 2 2 2 2 2 3 3 3 3 3 4 4 5 5 5 5 4 6
4 3 2 3 3 3 3 2 2 2 3 2 2 2 5 6 5 6 6 5 5 3 3 3 2 2 3 3 3 3 3 3 4 4 4 4 4 5 6 7 7 7 7
5 6 6 5 4 3 3 2 2 2 2 3 2 1 1 4 4 3 4 4 4 4 4 4 4 4 4 4 4 4 5 4 4 5 4 4 5 5 6 7 7 8 8
5 5 6 5 4 4 3 3 3 3 4 4 3 5 7 6 5 4 4 4 4 4 4 5 5 5 4 5 4 5 5 5 5 5 5 6 6 6 7 7 8 8 9
5 5 5 5 5 4 5 5 5 4 5 5 5 4 5 5 5 5 5 4 5 5 5 5 6 6 5 4 5 6 7 6 5 6 6 7 7 7 7 8 10 11 11
6 6 6 5 6 6 6 6 6 6 5 5 5 5 5 5 5 6 6 5 6 6 6 6 7 8 9 7 7 7 6 5 7 7 9 9 9 9 9 9 11 12 12
8 7 7 6 6 6 6 6 6 6 6 6 6 6 6 6 6 7 6 6 7 7 8 8 7 8 10 11 10 8 3 3 5 7 9 9 11 11 12 13 12 13 13
9 8 8 7 7 7 7 7 7 7 7 7 7 7 7 7 7 7 7 7 7 7 8 8 9 11 12 11 10 8 5 6 7 7 8 10 12 12 12 12 15 14 15
Wind_Direction
75 72 68 67 66 63 57 52 45 41 40 41 41 44 44 42 41 43 41 40 42 43 38 43 40 26 33 46 72 90 105 116 121 109 94 96 91 90 89 85 88 91 92
82 78 71 68 66 65 61 53 49 47 46 48 45 47 46 44 40 42 44 43 44 43 40 42 41 48 51 56 73 91 97 105 122 120 112 104 97 101 100 97 93 92 96
90 85 78 72 70 65 62 56 52 53 53 51 48 50 50 47 46 45 47 48 47 44 41 42 45 51 59 71 83 99 103 107 112 118 116 112 112 115 116 108 102 100 110
92 85 80 72 67 65 63 61 56 57 58 56 55 53 52 49 45 46 50 51 50 51 50 50 47 50 59 79 92 100 109 116 121 120 119 121 118 121 124 121 117 115 111
99 90 84 80 73 68 64 63 63 61 60 56 57 56 52 50 36 28 48 58 56 57 56 58 58 56 48 48 71 89 105 114 117 116 116 118 115 121 111 115 119 128 121
96 91 87 83 80 74 70 68 69 66 61 57 56 57 53 47 24 17 18 58 56 58 58 61 72 68 72 70 66 63 64 88 98 106 107 110 110 109 113 124 131 140 121
99 95 91 85 82 79 77 73 73 71 68 64 61 60 60 47 26 23 14 46 59 57 55 55 61 65 66 82 92 94 77 66 68 91 105 107 111 105 106 107 81 64 65
107 101 96 93 91 86 82 76 73 73 69 66 62 65 65 51 26 21 3 59 65 63 58 56 60 62 50 49 80 81 79 69 60 70 81 82 84 76 76 105 139 162 167
110 103 98 96 96 91 84 78 73 76 73 71 66 65 63 55 27 12 353 72 73 70 64 56 55 66 32 18 83 90 88 89 85 80 76 84 77 52 351 290 191 206 149
112 106 101 100 96 92 85 83 82 86 88 84 76 65 60 59 36 15 351 53 73 82 83 79 60 45 25 14 64 81 85 84 93 110 118 143 141 136 223 319 331 339 16
121 113 105 101 102 97 90 90 95 94 91 88 87 84 71 59 60 34 11 17 44 63 74 74 66 41 32 23 31 62 59 37 99 111 116 119 124 125 117 51 0 344 347
119 112 107 105 99 96 94 91 96 107 115 109 104 102 99 87 57 50 34 25 3 47 55 64 72 50 39 33 49 50 331 289 116 95 91 88 77 65 54 30 17 1 339
125 119 114 108 96 93 95 103 117 134 129 120 116 107 97 95 105 103 70 38 13 32 54 53 46 33 194 121 103 288 276 256 74 75 73 67 64 54 26 168 178 222 234
132 128 128 122 114 110 112 101 101 105 106 110 106 103 100 100 75 70 98 130 155 141 110 138 190 232 223 133 179 210 54 35 16 37 45 55 45 56 312 342 328 302 281
137 136 137 128 117 117 99 55 38 57 35 2 35 64 70 73 51 15 347 2 5 21 327 223 175 153 152 129 115 88 85 128 68 36 3 327 326 330 337 336 310 302 306
148 150 151 142 136 145 137 130 75 36 64 22 346 341 35 58 45 355 347 338 327 320 297 263 112 86 61 72 88 128 125 33 11 345 327 325 324 320 318 308 299 305 309
151 151 152 143 148 158 155 154 145 155 195 220 240 276 301 318 306 300 303 300 281 275 257 242 244 276 293 290 293 317 355 24 329 299 303 310 309 304 302 301 304 309 308
160 153 167 156 165 162 163 176 173 165 160 165 187 207 221 236 251 261 274 274 237 225 242 247 245 243 252 273 286 299 300 284 271 288 299 301 302 301 301 302 305 313 312
176 165 168 168 182 169 178 188 183 188 184 168 165 172 195 211 221 235 240 252 264 253 247 252 262 261 265 267 273 275 282 288 300 298 291 293 296 297 301 304 305 308 292
174 139 218 208 194 189 200 213 209 201 197 194 202 191 172 203 218 202 209 233 252 258 261 261 264 272 268 266 260 258 258 263 264 267 278 286 289 292 295 296 300 301 297
182 169 195 227 215 208 214 220 215 214 214 214 213 131 329 263 252 247 238 230 243 254 259 265 261 254 251 251 260 270 273 274 275 280 284 284 287 289 291 291 291 293 297
197 196 202 217 212 216 232 234 234 232 229 234 230 183 184 241 257 256 249 246 246 250 255 262 267 266 269 274 274 266 268 273 276 277 280 282 280 282 286 289 293 297 297
213 210 210 216 222 214 233 238 238 239 239 239 241 239 216 236 249 255 257 254 252 252 253 251 259 265 267 265 266 270 272 278 284 288 285 284 285 285 285 287 290 293 296
216 221 221 221 225 228 229 233 238 240 239 243 249 252 253 250 255 259 261 258 254 252 253 255 259 267 270 267 262 259 262 274 282 278 279 282 284 286 287 288 289 293 296
222 224 226 228 232 234 237 239 241 244 246 248 253 255 256 254 252 252 251 252 254 255 257 258 258 259 262 263 263 265 259 240 256 277 277 275 277 280 282 286 288 292 293
226 226 230 232 235 239 241 243 244 247 250 253 257 259 261 260 257 256 254 253 255 257 258 259 259 261 262 261 260 257 240 232 234 240 261 270 274 276 281 284 288 290 292